Charlotte, NC

2:44 PM EDT on June 28, 2017 (GMT -0400)
Charlotte-Douglas International

Weather History for KCLT - August, 2012

Change the Weather History Date:

Sunday, August 5, 2012

  Actual Average Record
Temperature  
Mean Temperature 81 °F 78 °F  
Max Temperature 90 °F 89 °F 100 °F (1954)
Min Temperature 72 °F 68 °F 55 °F (1912)
Degree Days  
Heating Degree Days 0 0  
Month to date heating degree days 0 0  
Since 1 June heating degree days 0 3  
Since 1 July heating degree days 0 0  
Cooling Degree Days 16 13  
Month to date cooling degree days 84 65  
Year to date cooling degree days 1253 959  
Since 1 June cooling degree days 924 796  
Growing Degree Days 31 (Base 50)    
Moisture  
Dew Point 70 °F    
Average Humidity 72    
Maximum Humidity 93    
Minimum Humidity 50    
Precipitation  
Precipitation 0.20 in 0.15 in 3.01 in (1880)
Month to date precipitation 0.21 0.73  
Year to date precipitation 20.27 25.11  
Snow  
Snow 0.00 in 0.00 in 0.00 in ()
Month to date snowfall 0.0 0.0  
Since 1 June snowfall 0.0 0.0  
Since 1 July snowfall 0.0 0.0  
Snow Depth 0.00 in    
Sea Level Pressure  
Sea Level Pressure 30.18 in    
Wind  
Wind Speed 6 mph (South)    
Max Wind Speed 22 mph    
Max Gust Speed 29 mph    
Visibility 10 miles    
Events Rain    
T = Trace of Precipitation, MM = Missing Value Source: NWS Daily Summary

Daily Weather History Graph

Daily Weather History Graph

Search for Another Location

Airport or City:

Trip Planner

Search our weather history database for the weather conditions in past years. The results will help you decide how hot, cold, wet, or windy it might be!

Date:

Astronomy

Aug. 05, 2012 Rise Set
Actual Time 6:36 AM EDT 8:22 PM EDT
Civil Twilight 6:08 AM EDT 8:50 PM EDT
Nautical Twilight 5:35 AM EDT 9:23 PM EDT
Astronomical Twilight 4:59 AM EDT 9:58 PM EDT
Moon 10:13 PM EDT (8/5) 10:12 AM EDT (8/5)
Length of Visible Light 14h 41m
Length of Day
13h 46m
Waning Gibbous, 86% of the Moon is Illuminated
Aug 5
Waning Gibbous
Aug 9
Last Quarter
Aug 17
New
Aug 24
First Quarter
Aug 31
Full

Hourly Weather History & Observations

Time (EDT) Temp. Heat Index Dew Point Humidity Pressure Visibility Wind Dir Wind Speed Gust Speed Precip Events Conditions
12:52 AM 77.0 °F - 70.0 °F 79% 30.20 in 10.0 mi South 6.9 mph - N/A   Overcast
1:52 AM 77.0 °F - 70.0 °F 79% 30.19 in 10.0 mi South 9.2 mph - N/A   Overcast
2:52 AM 75.9 °F - 70.0 °F 82% 30.18 in 10.0 mi South 3.5 mph - N/A   Overcast
3:52 AM 75.0 °F - 70.0 °F 84% 30.17 in 10.0 mi South 3.5 mph - N/A   Mostly Cloudy
4:52 AM 73.0 °F - 70.0 °F 90% 30.17 in 10.0 mi Calm Calm - N/A   Mostly Cloudy
5:52 AM 73.9 °F - 69.1 °F 85% 30.18 in 10.0 mi SSE 4.6 mph - N/A   Scattered Clouds
6:52 AM 72.0 °F - 69.1 °F 91% 30.20 in 10.0 mi South 5.8 mph - N/A   Scattered Clouds
7:52 AM 75.0 °F - 70.0 °F 84% 30.21 in 10.0 mi South 4.6 mph - N/A   Scattered Clouds
8:52 AM 79.0 °F - 71.1 °F 77% 30.22 in 10.0 mi South 5.8 mph - N/A   Mostly Cloudy
9:25 AM 80.6 °F 84.6 °F 71.6 °F 74% 30.25 in 10.0 mi West 5.8 mph - N/A   Mostly Cloudy
9:52 AM 81.0 °F 84.9 °F 71.1 °F 72% 30.22 in 10.0 mi Calm Calm - N/A   Mostly Cloudy
10:44 AM 80.6 °F 83.9 °F 69.8 °F 70% 30.26 in 10.0 mi SSE 3.5 mph - N/A   Mostly Cloudy
10:52 AM 82.0 °F 85.9 °F 70.0 °F 67% 30.24 in 10.0 mi SSW 4.6 mph - N/A   Mostly Cloudy
11:52 AM 84.2 °F 88.4 °F 69.8 °F 62% 30.25 in 10.0 mi Calm Calm - N/A   Mostly Cloudy
12:52 PM 86.0 °F 89.4 °F 68.0 °F 55% 30.20 in 10.0 mi SSW 5.8 mph - N/A   Mostly Cloudy
1:52 PM 90.0 °F 93.6 °F 68.0 °F 48% 30.17 in 10.0 mi WSW 6.9 mph - N/A   Mostly Cloudy
2:52 PM 88.0 °F 90.7 °F 66.9 °F 49% 30.15 in 10.0 mi South 11.5 mph - N/A   Mostly Cloudy
3:09 PM 78.8 °F - 71.6 °F 78% 30.19 in 10.0 mi South 18.4 mph 28.8 mph 0.04 in Rain Heavy Rain
3:25 PM 82.4 °F 86.3 °F 69.8 °F 66% 30.17 in 10.0 mi Calm Calm - 0.19 in Rain Light Rain
3:52 PM 86.0 °F 93.4 °F 73.4 °F 66% 30.16 in 10.0 mi South 8.1 mph - N/A   Mostly Cloudy
4:52 PM 86.0 °F 92.2 °F 72.0 °F 63% 30.12 in 10.0 mi West 4.6 mph - N/A   Overcast
5:52 PM 87.1 °F 92.0 °F 70.0 °F 57% 30.11 in 10.0 mi SE 19.6 mph 23.0 mph N/A   Overcast
6:52 PM 81.0 °F 84.4 °F 70.0 °F 69% 30.12 in 10.0 mi SW 11.5 mph - N/A   Overcast
7:52 PM 79.0 °F - 70.0 °F 74% 30.13 in 10.0 mi South 4.6 mph - N/A   Overcast
8:52 PM 78.1 °F - 71.1 °F 79% 30.13 in 10.0 mi SSW 3.5 mph - N/A   Overcast
9:52 PM 78.1 °F - 72.0 °F 81% 30.14 in 10.0 mi South 4.6 mph - N/A   Mostly Cloudy
10:52 PM 78.1 °F - 72.0 °F 81% 30.14 in 10.0 mi South 9.2 mph - N/A   Mostly Cloudy
11:52 PM 77.0 °F - 71.1 °F 82% 30.13 in 10.0 mi South 11.5 mph - N/A   Mostly Cloudy